Weather History for KGCC - October, 2010

Change the Weather History Date:

Monday, October 4, 2010

  Actual Average Record
Temperature  
Mean Temperature 70 °F 50 °F  
Max Temperature 89 °F 63 °F 89 °F (1963)
Min Temperature 50 °F 36 °F 24 °F (1954)
Degree Days  
Heating Degree Days 0 16  
Month to date heating degree days 17 60  
Since 1 July heating degree days 295 355  
Cooling Degree Days 5 0  
Month to date cooling degree days 5 0  
Year to date cooling degree days 428 500  
Growing Degree Days 20 (Base 50)    
Moisture  
Dew Point 35 °F    
Average Humidity 36    
Maximum Humidity 59    
Minimum Humidity 12    
Precipitation  
Precipitation 0.00 in 0.05 in 1.11 in (1998)
Month to date precipitation 0.00 0.20  
Year to date precipitation 11.94 11.87  
Sea Level Pressure  
Sea Level Pressure 29.79 in    
Wind  
Wind Speed 14 mph (South)    
Max Wind Speed 26 mph    
Max Gust Speed 32 mph    
Visibility 10 miles    
Events      
T = Trace of Precipitation, MM = Missing Value Source: NWS Daily Summary

Daily Weather History Graph

Daily Weather History Graph

Search for Another Location

Airport or City:

Trip Planner

Search our weather history database for the weather conditions in past years. The results will help you decide how hot, cold, wet, or windy it might be!

Date:

Astronomy

Oct. 04, 2010 Rise Set
Actual Time 7:03 AM MDT 6:37 PM MDT
Civil Twilight 6:34 AM MDT 7:06 PM MDT
Nautical Twilight 6:01 AM MDT 7:39 PM MDT
Astronomical Twilight 5:27 AM MDT 8:13 PM MDT
Moon 3:07 AM MDT (10/4) 4:43 PM MDT (10/4)
Length of Visible Light 12h 31m
Length of Day
11h 33m
Waning Crescent, 13% of the Moon is Illuminated
Oct 4
Waning Crescent
Oct 7
New
Oct 14
First Quarter
Oct 22
Full
Oct 30
Last Quarter

Hourly Weather History & Observations

Time (MDT) Temp. Dew Point Humidity Pressure Visibility Wind Dir Wind Speed Gust Speed Precip Events Conditions
12:53 AM 55.9 °F 34.0 °F 44% 29.84 in 10.0 mi SSE 12.7 mph - N/A   Clear
1:53 AM 55.9 °F 35.1 °F 45% 29.84 in 10.0 mi SSE 11.5 mph - N/A   Clear
2:53 AM 54.0 °F 36.0 °F 51% 29.83 in 10.0 mi SSE 15.0 mph - N/A   Clear
3:53 AM 53.1 °F 37.0 °F 55% 29.81 in 10.0 mi SSE 4.6 mph - N/A   Clear
4:53 AM 52.0 °F 37.9 °F 59% 29.81 in 10.0 mi SSE 9.2 mph - N/A   Clear
5:53 AM 51.1 °F 37.9 °F 61% 29.82 in 10.0 mi South 13.8 mph - N/A   Clear
6:53 AM 51.1 °F 37.9 °F 61% 29.85 in 10.0 mi South 18.4 mph - N/A   Clear
7:53 AM 54.0 °F 37.9 °F 55% 29.85 in 10.0 mi South 18.4 mph - N/A   Clear
8:53 AM 59.0 °F 39.0 °F 48% 29.83 in 10.0 mi SSE 16.1 mph - N/A   Clear
9:53 AM 68.0 °F 37.0 °F 32% 29.81 in 10.0 mi ENE 4.6 mph - N/A   Clear
10:53 AM 75.0 °F 33.1 °F 22% 29.78 in 10.0 mi SSE 9.2 mph - N/A   Clear
11:53 AM 82.0 °F 27.0 °F 13% 29.75 in 10.0 mi SW 15.0 mph - N/A   Clear
12:53 PM 86.0 °F 28.0 °F 12% 29.73 in 10.0 mi SSW 10.4 mph - N/A   Clear
1:53 PM 88.0 °F 28.9 °F 12% 29.70 in 10.0 mi SSW 12.7 mph 18.4 mph N/A   Clear
2:53 PM 88.0 °F 30.9 °F 13% 29.70 in 10.0 mi SSW 20.7 mph 28.8 mph N/A   Clear
3:53 PM 84.9 °F 33.1 °F 16% 29.72 in 10.0 mi West 19.6 mph 25.3 mph N/A   Clear
4:00 PM 84.2 °F 33.8 °F 16% 29.86 in 10.0 mi WNW 16.1 mph 25.3 mph N/A   Clear
4:53 PM 84.0 °F 33.1 °F 16% 29.72 in 10.0 mi SW 23.0 mph 28.8 mph N/A   Clear
5:53 PM 81.0 °F 36.0 °F 20% 29.74 in 10.0 mi SSW 16.1 mph - N/A   Clear
6:53 PM 73.9 °F 37.0 °F 26% 29.76 in 10.0 mi SSW 10.4 mph - N/A   Clear
7:53 PM 71.1 °F 36.0 °F 28% 29.78 in 10.0 mi SSW 13.8 mph - N/A   Clear
8:53 PM 66.9 °F 35.1 °F 31% 29.79 in 10.0 mi South 13.8 mph - N/A   Clear
9:53 PM 66.0 °F 35.1 °F 32% 29.78 in 10.0 mi South 13.8 mph - N/A   Clear
10:53 PM 64.0 °F 34.0 °F 33% 29.78 in 10.0 mi South 16.1 mph - N/A   Clear
11:53 PM 62.1 °F 34.0 °F 35% 29.78 in 10.0 mi South 17.3 mph - N/A   Clear